FLOCK 4A-5 (44095 NORAD) Tracking and Keplerian Element Data

This shows tracking and keplerian element data for the satellite.

Feedback or suggestion? Click here.




ElementValue
Catalog44095
NameFLOCK 4A-5
Epoch Orbit309
Epoch Day111.72053841
Epoch Year2019
RAAN172.1163
Inclination97.4628
Eccentricity0.0010533
Argument of Perigee212.6215
Mean Anonmoly147.4372
Mean Motion15.21923022
Decay Rate7.47E-06
L11 44095U 19018T 19111.72053841 .00000747 00000-0 35867-4 0 9995
L22 44095 97.4628 172.1163 0010533 212.6215 147.4372 15.21923022 3099

Live tracking and technical data element details for FLOCK 4A-5 (NORAD 44095). FLOCK 4A-5 can be tracked NOW for your location showing map with azimuth and elevation plus other details from your city location.

Track the satellite on the map from your city or location and see movement details for azimuth, elevation, latitude, longitude, range, height, and movement on the map or in text.







IsCatalogInMostPopularTable: catalog: 44095, numindb: 4
Update: records affected: 1



GetName: 44095 FLOCK 4A-5

Hit Count: updated at: Tue, 23 Apr 2019 02:02:27 GMT